{"data":{"norad_id":65485,"epoch":"2026-05-24T16:28:40.311552Z","epoch_age_seconds":95911,"freshness":"FRESH","line1":"1 65485U 25195AD  26144.68657768  .00032166  00000+0  10937-2 0  9999","line2":"2 65485  53.1582 264.8395 0001189  80.6945 279.4190 15.30192621 41616","mean_motion":15.30192621,"eccentricity":0.0001189,"inclination_deg":53.1582,"raan_deg":264.8395,"arg_perigee_deg":80.6945,"mean_anomaly_deg":279.419,"bstar":0.0010937,"rev_number":4161,"period_min":94.105799507708,"perigee_km":474.42223569108,"apogee_km":476.0519680525,"semimajor_km":6853.3741018718,"source":"CELESTRAK","updated_at":"2026-05-25T13:38:20.839058Z"}}